Location: Unspecified
(0.0000°N, 0.0000°E)
Time: 19:17:32
(UTC+00:00)

Tiros 1 - Pass Details

Date: 27 November 2019
Orbit: 630 x 664 km, 48.4° (Epoch: 06 December)

Event Time Altitude Azimuth Distance (km) Brightness Sun altitude
Rises 20:36:05 0° 300° (WNW) 2,933 10.9 -38.7°
Enters shadow 20:37:08 - 296° (WNW) 2,556 10.6 -38.9°
Reaches altitude 10° 20:38:41 10° 288° (WNW) 2,033 - -39.3°
Maximum altitude 20:42:36 26° 231° (SW) 1,263 - -40.1°
Drops below altitude 10° 20:46:35 10° 173° (S) 2,057 - -41.0°
Sets 20:49:15 0° 161° (SSE) 2,975 - -41.6°
